Погода в Михайловске

Россия / Ставропольский край     45˚07′46″N   42˚01′43″E
темп.,
°C
ветер,
м/с
пор.,
м/с
влажн.,
%
обл.,
%
осадки,
мм/ч
давл.,
гПа
погр.,
м
16 января, сб
сб1600:00−1˚зюз5887100 0.0 1014533
03:00−2˚зюз489067 0.0 1015341
06:00−1˚юз378811 0.0 1015269
09:00−1˚юз359555 0.6 1017320
12:00з568997 0.4 1017562
15:00з348073 0.4 1016457
18:00−1˚сз1284100 0.0 101787
21:00−2˚всв2382100 0.0 1017156
17 января, вс
вс1700:00−2˚всв5877100 0.0 1015380
03:00−2˚в71284100 0.0 1012589
06:00−2˚в81388100 0.1 1010818
09:00−2˚в101588100 0.6 1008810
12:00−1˚в101683100 0.1 1006829
15:00−1˚вюв91384100 0.1 1005760
18:00−2˚в91484100 0.0 1005627
21:00−1˚в71183100 0.0 1005597
18 января, пн
пн1800:00−2˚в71189100 0.1 1004458
03:00−3˚в4694100 0.9 1006368
06:00−4˚всв2395100 2.4 1008224
09:00−4˚сз2394100 3.9 1012223
12:00−5˚з71090100 0.4 1014687
15:00−6˚з71090100 0.5 1015637
18:00−8˚зсз5892100 0.1 1018456
21:00−8˚зюз4793100 0.2 1019323
19 января, вт
вт1900:00−8˚з4892100 0.0 1020270
03:00−7˚юз249097 0.0 1021166
06:00−7˚ююз2392100 0.0 102085
09:00−6˚ю228890 0.0 102069
12:00−5˚сз459496 0.5 1019376
15:00−4˚юз248698 0.8 1018366
18:00−6˚з3595100 0.1 1021277
21:00−6˚зюз4794100 0.4 1023485
20 января, ср
ср2000:00−9˚зсз3596100 0.2 1024279
03:00−10˚з2496100 0.3 1026247
06:00−11˚з249587 0.0 1027146
09:00−11˚зюз249263 0.0 1028190
12:00−9˚з458875 0.0 1028563
15:00−9˚зсз468887 0.1 1028580
18:00−11˚зсз3696100 0.1 1030359
21:00−12˚з3596100 0.1 1032278